Regional Weather Roundup
Issued by NWS Newport/Morehead, NC

Current Version | Previous Version | Graphics & Text | Print | Product List | Glossary Off
Versions: 1 2 3 4 5 6 7 8 9 10 11 12 13 14 15 16 17 18 19 20 21 22 23 24 25 26 27 28 29 30 31 32 33 34 35 36 37 38 39 40 41 42 43 44 45 46 47 48 49 50

000
ASUS42 KMHX 290125
RWRMHX
WEATHER ROUNDUP FOR EASTERN NORTH CAROLINA
NATIONAL WEATHER SERVICE NEWPORT/MOREHEAD CITY NC
900 PM EDT TUE MAR 28 2017

NOTE: "FAIR" INDICATES FEW OR NO CLOUDS BELOW 12,000 FEET
WITH NO SIGNIFICANT WEATHER AND/OR OBSTRUCTIONS TO VISIBILITY

NCZ015>017-031-032-045>047-102-103-290200-
NORTH COAST

CITY           SKY/WX    TMP DP  RH WIND       PRES   REMARKS
EDENTON        CLEAR     64  59  83 CALM      29.91R
ELIZABETH CITY CLEAR     62  59  90 SW8       29.89R
KITTY HAWK     NOT AVBL
MANTEO         PTCLDY    61  60  95 SW5       29.90R

$$

NCZ045>047-081-094-103-104-290200-
CENTRAL COAST

CITY           SKY/WX    TMP DP  RH WIND       PRES   REMARKS
FRISCO         LGT RAIN  64  59  83 W13G25    29.89F

$$

NCZ095-097-098-100-101-290200-
SOUTHERN COAST

CITY           SKY/WX    TMP DP  RH WIND       PRES   REMARKS
BEAUFORT       MOCLDY    66  65  96 S12       29.91F
CEDAR ISLAND   NOT AVBL
JACKSONVILLE   PTCLDY    64  64 100 S3        29.91R
PINEY ISLAND   MOCLDY   N/A N/A N/A S9        29.92
WILMINGTON     CLOUDY    68  60  75 VRB7      29.92R


$$

NCZ011>013-027>030-043-044-078>080-089-090>093-098-290200-
COASTAL PLAIN

CITY           SKY/WX    TMP DP  RH WIND       PRES   REMARKS
AHOSKIE        FOG       58  58  98 CALM      29.91R VSB 1/2
CLINTON        PTCLDY    65  63  92 CALM      29.91R
ELIZABETHTOWN  CLEAR     69  62  78 CALM      29.91R
GOLDSBORO      CLEAR     65  65 100 E6        29.90R
GREENVILLE     PTCLDY    64  61  88 CALM      29.94R
HAVELOCK       MOCLDY    63  61  93 E6        29.92R
KENANSVILLE    MOCLDY    63  63 100 CALM      29.91R FOG
KINSTON        CLEAR     63  63 100 NE3       29.93R
NEW BERN       PTCLDY    59  59 100 CALM      29.92R
RICHLANDS      PTCLDY    64  63  96 CALM      29.92R
ROCKY MOUNT    MOCLDY    62  61  96 CALM      29.91R
WASHINGTON     PTCLDY    60  59  94 CALM      29.92R
WHITEVILLE     MOCLDY    71  62  72 CALM      29.90R

$$

AMZ130-135-150-152-154-156-158-170-250-252-270-ANZ085-086-088-633-658-670-290200-
MARINE OBSERVATIONS

STATION/POSITION TIME  TEMP    WIND        PRES    WAVE   SWELL
                       AIR SEA DIR/SP/G            HT/PER HT/PER
                 (UTC) (F)     (DEG/KT/KT) (MB)    (FT/S) (FT/S)
CHESAPEAKE LIGHT NOT AVBL
64 E VA BEACH    0050   54 49  210/  8/  8 1011.6    4/10   3/10
DUCK             0100   65 47  220/  8/ 10 1011.5
2 E DUCK         0100      50                N/A     2/11   2/11
OREGON INLET     0100   62 61  210/ 11/ 11 1012.1
13E OREGON INLT  0048      53                N/A     4/10   3/10
HATTERAS CG      0100   64 62  240/ 13/ 18 1012.1
DIAMOND BUOY     0050   73 75  250/ 19/ 23 1011.8    5/ 9   3/ 9
CAPE LOOKOUT     0100   67     250/  8/ 10 1013.3
BEAUFORT LAB     0100   65 62  200/ 11/ 16 1012.0
30 SE NEW RVR IN 0108   65     320/ 16/ 23 1013.8
30 SE NEW RVR IN 0043      65                N/A     6/11   2/11
27 SE WRIGHTSVLE 0108   70 69  250/ 17/ 23 1012.2
5 SE WRIGHTSVLE  0108   62 59  220/  8/ 12 1012.5
225 S CAPE HAT   0050   70 73  210/  8/ 10 1016.1    5/10   5/10
41 SE CHARLESTON 0050   72 72  220/ 16/ 17 1013.1    5/10   5/10

$$



USA.gov is the U.S. government's official web portal to all federal, state and local government web resources and services.